Regional Weather Roundup
Issued by NWS

Home | Current Version | Previous Version | Text Only | Print | Product List | Glossary On
Versions: 1 2 3 4 5 6 7 8 9 10 11 12 13 14 15 16 17 18 19 20 21 22 23 24 25 26 27 28 29 30 31 32 33 34 35 36 37 38 39 40 41 42 43 44 45 46 47 48 49 50
000
ASUS46 KPQR 100310
RWROR

OREGON REGIONAL WEATHER ROUNDUP
NATIONAL WEATHER SERVICE PORTLAND OR
700 PM PST FRI DEC 09 2016

NOTE: "FAIR" INDICATES FEW OR NO CLOUDS BELOW 12,000 FEET WITH
NO SIGNIFICANT WEATHER AND/OR OBSTRUCTIONS TO VISIBILITY.

ORZ001>013-100400-
NORTHWEST OREGON


CITY           SKY/WX    TMP DP  RH WIND       PRES   REMARKS
ASTORIA        LGT RAIN  42  38  85 E7        29.83F
NEWPORT        LGT RAIN  50  48  93 SW22G28   29.91F
PORTLAND       LGT RAIN  33  30  88 SE13      29.94S FOG     WCI  24
VANCOUVER WA   LGT RAIN  33  31  92 SE7       29.94S FOG     WCI  27
SCAPPOOSE      LGT RAIN  33  31  92 S3        29.93F FOG
HILLSBORO      CLOUDY    34  33  96 SE5       29.91F FOG     WCI  30
AURORA         LGT RAIN  36  35  96 N6        29.94R WCI  31
MCMINNVILLE    RAIN      35  34  96 CALM      29.92S FOG
SALEM          LGT RAIN  47  44  90 S14       29.90F
CORVALLIS        N/A     48  45  87 S13       29.93S
EUGENE         LGT RAIN  47  43  86 S9        29.94F
$$

ORZ021-028-100400-
SOUTHWEST OREGON


CITY           SKY/WX    TMP DP  RH WIND       PRES   REMARKS
NORTH BEND     CLOUDY    48  48 100 SE8       29.96F
BROOKINGS      HVY RAIN  51  51 100 S6        29.99F FOG
ROSEBURG       LGT RAIN  47  45  93 S3        29.99S
SEXTON SUMMIT  MIX PCPN  37  37 100 SW12      29.94S VSB 1/4 WCI  29
MEDFORD        LGT RAIN  47  47 100 CALM      30.00S FOG
$$

ORZ014>016-041-100400-
COLUMBIA GORGE


CITY           SKY/WX    TMP DP  RH WIND       PRES   REMARKS
TROUTDALE      CLOUDY    32  29  88 E17G31    29.94F WCI  21
THE DALLES     LGT SNOW  27  25  92 CALM      30.10F FOG
$$

ORZ029>031-041-044-049-050-061>064-502-503-505>511-100400-
EASTERN OREGON


CITY           SKY/WX    TMP DP  RH WIND       PRES   REMARKS
REDMOND        CLOUDY    26  22  84 S3        29.87F
BEND           CLOUDY    39  34  81 SW10      29.88F WCI  32
PRINEVILLE     CLOUDY    32  28  86 CALM      29.89F
KLAMATH FALLS  LGT RAIN  39  39 100 NW3       29.97S
LAKEVIEW       CLOUDY    37  34  87 S13       29.99S WCI  29
HERMISTON      LGT SNOW  25  23  92 CALM      30.07F VSB 1
PENDLETON      MIX PCPN  22  19  89 N5        30.01F WCI  16
JOHN DAY       CLOUDY    37  36  94 SE5       29.92S WCI  34
MEACHAM        LGT SNOW  30  27  88 CALM      29.89F FOG
LA GRANDE      CLOUDY    30  23  74 S8        29.95F WCI  23
BAKER CITY     LGT SNOW  25  24  96 CALM      29.98F FOG
BURNS          LGT RAIN  32  32 100 SE5       29.96S FOG     WCI  27
ROME             N/A     39  36  89 CALM      29.94F
ONTARIO        CLOUDY    29  27  92 CALM      30.06F
$$



USA.gov is the U.S. government's official web portal to all federal, state and local government web resources and services.